Showing default

NINGXIA-1 4, 44782

Orbit data source: Space-Track

NINGXIA-1 4, 44782 is a Chinese payload satellite in LEO that was launched on Wed, 13 Nov 2019 UTC via a CHANG ZHENG 6 launch vehicle from the Taiyaun Space Center, China (TSC). Payload-class satellites include a variety of spacecraft equipped with specific instruments for various scientific and technological missions. These include communications satellites like Starlink; space stations such as the ISS; scientific satellites like the Hubble; Earth observation satellites from companies like Planet Labs, Umbra, and HawkEye 360; GPS; miniature CubeSats for education and research; and military/defense satellites.

Loading next visibility...
Identifier
44782, 2019-076D
Orbit
LEO
Country
Flag of CNCN / PRC
Related business
Manufacturer
DFH
Mission
Operational Commercial Sigint
Bus & Motor
NX-1, Unknown motor
Mass
~100 kg wet, ~100 kg dry
Launch date (UTC)
2019-11-13 (6 years ago)
Launch vehicle
CHANG ZHENG 6
Launch site
Taiyaun Space Center, China (TSC)
Object type
Payload
Rocket body
Debris
Shape & HBR
Box + 2 Pan, Unknown HBR
Radar Cross Section
0.166 m², Medium (>0.1 m² and < 1m²)

Expand to show TLE details & history
Last TLE update: 22 hours ago

TLE from 22 hours ago
0 NINGXIA-1 4
1 44782U 19076D   25291.14226237  .00000049  00000-0  11664-3 0  9998
2 44782  45.0071 181.4138 0012555  55.7172 304.4849 14.01979585303855
Epoch: 2025-10-18T03:24Z
TLE epoch observation values (Epoch: 2025-10-18T03:24:51.468Z)
Latitude
-0.00004°
Longitude
103.32178°
Altitude
881.792 km
Speed
7.415 km/s
True Right ascension
12h 05m 39s
True Declination
0° 00' 00"
Sunlit
Object was in daylight at epoch
Visualization orbit readout
Latitude
Unknown
Longitude
Unknown
Altitude
Unknown
Speed
Unknown
Apparent Right ascension
Unknown
Apparent Declination
Unknown
Sunlit
N/A
Visualization observer readout
Local Sidereal Time
20:36:50
Azimuth
Unknown
Elevation
Unknown
Doppler factor
Unknown
Orbital elements
Apogee altitude
897.591 km
Perigee altitude
879.344 km
Semi-major axis
7,266.604 km
Eccentricity
0.00126
Inclination
45.0071°
RAAN
181.4138°
Arg. of periapsis
55.7172°
True anomaly
304.36621°
Mean anomaly
304.4849°
Eccentric anomaly
304.42556°
Mean motion
3.50385 °/min
Orbital period
102.74 mins
BSTAR
0.00011664
Loading maneuver chart data...
Computing Atmospheric mass density...
Loading historical data...
Loading historical data...
Loading historical data...
Loading historical data...
Loading historical data...
Loading historical data...
Loading historical data...
Other satellites on launch #76 in the year 2019 (2019-11-13 UTC)

Documentation

Showing up to 5 results
|